TJS-7 (49115 NORAD) Tracking and Keplerian Element Data

This shows tracking and keplerian element data for the satellite.

Feedback or suggestion? Click here.




ElementValue
Catalog49115
NameTJS-7
Epoch Orbit44
Epoch Day261.89732135
Epoch Year2021
RAAN275.8106
Inclination0.9677
Eccentricity0.0001356
Argument of Perigee256.6079
Mean Anonmoly295.1265
Mean Motion1.002699
Decay Rate-2.56E-06
L11 49115U 21077A 21261.89732135 -.00000256 00000-0 00000-0 0 9991
L22 49115 0.9677 275.8106 0001356 256.6079 295.1265 1.00269900 445

Live tracking and technical data element details for TJS-7 (NORAD 49115). TJS-7 can be tracked NOW for your location showing map with azimuth and elevation plus other details from your city location.

Track the satellite on the map from your city or location and see movement details for azimuth, elevation, latitude, longitude, range, height, and movement on the map or in text.







IsCatalogInMostPopularTable: catalog: 49115, numindb: 9
Update: records affected: 1



GetName: 49115 TJS-7

Hit Count: updated at: Fri, 24 Sep 2021 18:02:59 GMT